| time (UTC) | temp C | wind direction | speed KPH | gust KPH | rain 1hr cm | rain 24hr cm | rain mn cm | humidity % | barometer mb |
| 20260901082516 | 25 | 203 | 1.6 | 8.0 | 0.00 | 0.15 | 0.00 | 85 | 1014.2 |
| 20260901081515 | 25 | 203 | 3.2 | 6.4 | 0.00 | 0.15 | 0.00 | 85 | 1014.4 |
| 20260901080516 | 25 | 203 | 1.6 | 4.8 | 0.00 | 0.15 | 0.00 | 84 | 1014.3 |
| 20260901075515 | 25 | 203 | 1.6 | 6.4 | 0.00 | 0.15 | 0.00 | 84 | 1014.2 |
| 20260901074515 | 25 | 225 | 1.6 | 4.8 | 0.00 | 0.15 | 0.00 | 84 | 1014.3 |
| 20260901073515 | 25 | 225 | 3.2 | 4.8 | 0.00 | 0.15 | 0.00 | 84 | 1014.2 |
| 20260901072516 | 25 | 225 | 3.2 | 6.4 | 0.00 | 0.15 | 0.00 | 84 | 1014.2 |
| 20260901071516 | 25 | 225 | 3.2 | 8.0 | 0.00 | 0.15 | 0.00 | 84 | 1014.2 |
| 20260901070515 | 25 | 203 | 3.2 | 6.4 | 0.00 | 0.15 | 0.00 | 85 | 1014.2 |
| 20260901065516 | 25 | 203 | 1.6 | 4.8 | 0.00 | 0.15 | 0.00 | 85 | 1014.3 |
| 20260901064516 | 25 | 0.0 | 0.0 | 0.00 | 0.15 | 0.00 | 86 | 1014.2 | |
| 20260901063535 | 25 | 0.0 | 0.0 | 0.00 | 0.15 | 0.00 | 86 | 1014.2 | |
| 20260901062536 | 25 | 203 | 1.6 | 4.8 | 0.00 | 0.15 | 0.00 | 85 | 1013.9 |
| 20260901061515 | 25 | 203 | 1.6 | 4.8 | 0.00 | 0.15 | 0.00 | 85 | 1013.9 |
| 20260901060516 | 25 | 0.0 | 0.0 | 0.00 | 0.15 | 0.00 | 85 | 1013.9 | |
| 20260901055515 | 25 | 0.0 | 1.6 | 0.00 | 0.15 | 0.00 | 84 | 1014.1 | |
| 20260901054535 | 25 | 0.0 | 3.2 | 0.00 | 0.15 | 0.00 | 84 | 1014.0 | |
| 20260901053516 | 25 | 0.0 | 0.0 | 0.00 | 0.15 | 0.00 | 84 | 1014.0 | |
| 20260901052516 | 25 | 203 | 1.6 | 3.2 | 0.00 | 0.15 | 0.00 | 84 | 1014.0 |
| 20260901051516 | 25 | 0.0 | 3.2 | 0.00 | 0.15 | 0.00 | 84 | 1014.0 | |
| 20260901050515 | 25 | 203 | 1.6 | 6.4 | 0.00 | 0.15 | 0.00 | 84 | 1014.0 |
| 20260901045538 | 25 | 203 | 1.6 | 4.8 | 0.00 | 0.15 | 0.15 | 85 | 1014.0 |
| 20260901044556 | 25 | 0.0 | 0.0 | 0.00 | 0.15 | 0.15 | 85 | 1014.0 | |
| 20260901043516 | 25 | 0.0 | 4.8 | 0.00 | 0.15 | 0.15 | 85 | 1014.1 | |
| 20260901042516 | 25 | 0.0 | 3.2 | 0.00 | 0.15 | 0.15 | 85 | 1014.2 | |
| 20260901041536 | 26 | 0.0 | 3.2 | 0.00 | 0.15 | 0.15 | 85 | 1014.2 | |
| 20260901040516 | 26 | 0.0 | 0.0 | 0.00 | 0.15 | 0.15 | 84 | 1014.2 | |
| 20260901035537 | 26 | 0.0 | 3.2 | 0.00 | 0.15 | 0.15 | 84 | 1014.1 | |
| 20260901034516 | 26 | 0.0 | 0.0 | 0.00 | 0.15 | 0.15 | 83 | 1014.1 | |
| 20260901033515 | 26 | 0.0 | 0.0 | 0.00 | 0.15 | 0.15 | 82 | 1014.1 | |
| 20260901032516 | 26 | 0.0 | 0.0 | 0.00 | 0.15 | 0.15 | 81 | 1014.1 | |
| 20260901031536 | 27 | 0.0 | 0.0 | 0.00 | 0.15 | 0.15 | 81 | 1014.2 | |
| 20260901030516 | 27 | 203 | 1.6 | 4.8 | 0.00 | 0.15 | 0.15 | 81 | 1014.2 |
| 20260901025616 | 27 | 203 | 1.6 | 6.4 | 0.00 | 0.15 | 0.15 | 81 | 1014.2 |
| 20260901024515 | 27 | 203 | 1.6 | 6.4 | 0.00 | 0.15 | 0.15 | 81 | 1014.2 |
| 20260901023536 | 27 | 0.0 | 3.2 | 0.00 | 0.15 | 0.15 | 81 | 1014.3 | |
| 20260901022516 | 27 | 203 | 1.6 | 4.8 | 0.00 | 0.15 | 0.15 | 80 | 1014.3 |
| 20260901021518 | 27 | 225 | 3.2 | 6.4 | 0.00 | 0.15 | 0.15 | 81 | 1014.3 |
| 20260901020515 | 26 | 225 | 1.6 | 4.8 | 0.00 | 0.15 | 0.15 | 82 | 1014.0 |
| 20260901015516 | 26 | 180 | 1.6 | 3.2 | 0.00 | 0.15 | 0.15 | 83 | 1013.9 |
| 20260901014515 | 26 | 0.0 | 4.8 | 0.00 | 0.15 | 0.15 | 84 | 1013.8 | |
| 20260901013535 | 26 | 203 | 3.2 | 6.4 | 0.00 | 0.15 | 0.15 | 85 | 1013.7 |
| 20260901012516 | 26 | 0.0 | 4.8 | 0.00 | 0.15 | 0.15 | 85 | 1013.8 | |
| 20260901011515 | 26 | 0.0 | 0.0 | 0.00 | 0.15 | 0.15 | 83 | 1013.8 | |
| 20260901010515 | 26 | 0.0 | 0.0 | 0.00 | 0.15 | 0.15 | 81 | 1013.8 | |
| 20260901005515 | 26 | 0.0 | 3.2 | 0.00 | 0.15 | 0.15 | 81 | 1013.7 | |
| 20260901004516 | 27 | 0.0 | 1.6 | 0.00 | 0.15 | 0.15 | 81 | 1013.7 | |
| 20260901003556 | 27 | 0.0 | 0.0 | 0.00 | 0.15 | 0.15 | 80 | 1013.8 | |
| 20260901002515 | 27 | 0.0 | 0.0 | 0.00 | 0.15 | 0.15 | 79 | 1013.7 | |
| 20260901001536 | 27 | 0.0 | 3.2 | 0.00 | 0.15 | 0.15 | 78 | 1013.8 | |
| 20260901000515 | 27 | 203 | 1.6 | 4.8 | 0.00 | 0.15 | 0.15 | 78 | 1013.6 |
| 20260831235516 | 27 | 203 | 4.8 | 8.0 | 0.00 | 0.15 | 0.15 | 79 | 1013.2 |
| 20260831234518 | 27 | 225 | 4.8 | 8.0 | 0.00 | 0.15 | 0.15 | 81 | 1013.1 |
| 20260831233517 | 27 | 135 | 3.2 | 6.4 | 0.00 | 0.15 | 0.15 | 84 | 1012.7 |
| 20260831232515 | 27 | 113 | 1.6 | 4.8 | 0.00 | 0.15 | 0.15 | 83 | 1013.1 |
| 20260831231517 | 28 | 0.0 | 0.0 | 0.00 | 0.15 | 0.15 | 80 | 1014.2 | |
| 20260831230517 | 28 | 0.0 | 0.0 | 0.03 | 0.15 | 0.15 | 79 | 1014.2 | |
| 20260831225517 | 28 | 0.0 | 0.0 | 0.03 | 0.15 | 0.15 | 80 | 1013.6 | |
| 20260831224518 | 28 | 0.0 | 0.0 | 0.03 | 0.18 | 0.15 | 78 | 1013.5 | |
| 20260831223517 | 28 | 225 | 1.6 | 6.4 | 0.03 | 0.18 | 0.15 | 75 | 1013.4 |
| 20260831222517 | 29 | 0.0 | 3.2 | 0.03 | 0.18 | 0.15 | 73 | 1013.5 | |
| 20260831221518 | 30 | 225 | 1.6 | 3.2 | 0.05 | 0.18 | 0.15 | 70 | 1013.7 |
| 20260831220518 | 30 | 248 | 3.2 | 6.4 | 0.03 | 0.15 | 0.13 | 64 | 1013.4 |
| 20260831215519 | 30 | 203 | 4.8 | 14.5 | 0.03 | 0.15 | 0.13 | 65 | 1013.2 |
| 20260831214518 | 30 | 225 | 4.8 | 9.7 | 0.03 | 0.15 | 0.13 | 65 | 1013.1 |
| 20260831213517 | 30 | 203 | 3.2 | 8.0 | 0.03 | 0.18 | 0.13 | 66 | 1013.1 |
| 20260831212538 | 30 | 225 | 4.8 | 12.9 | 0.03 | 0.18 | 0.13 | 64 | 1013.1 |
| 20260831211517 | 31 | 225 | 3.2 | 9.7 | 0.00 | 0.15 | 0.10 | 62 | 1013.3 |
| 20260831210518 | 31 | 225 | 3.2 | 6.4 | 0.00 | 0.15 | 0.10 | 59 | 1013.4 |
| 20260831205517 | 31 | 225 | 4.8 | 12.9 | 0.00 | 0.15 | 0.10 | 60 | 1013.4 |
| 20260831204517 | 31 | 225 | 4.8 | 14.5 | 0.00 | 0.15 | 0.10 | 59 | 1013.5 |
| 20260831203517 | 31 | 225 | 6.4 | 11.3 | 0.00 | 0.15 | 0.10 | 59 | 1013.6 |
| 20260831202517 | 31 | 270 | 4.8 | 9.7 | 0.00 | 0.15 | 0.10 | 60 | 1013.8 |
| 20260831201519 | 31 | 225 | 4.8 | 11.3 | 0.00 | 0.15 | 0.10 | 59 | 1013.9 |
| 20260831200517 | 31 | 225 | 4.8 | 11.3 | 0.00 | 0.15 | 0.10 | 60 | 1014.0 |
| 20260831195517 | 31 | 248 | 4.8 | 9.7 | 0.00 | 0.15 | 0.10 | 59 | 1013.8 |
| 20260831194517 | 31 | 225 | 6.4 | 11.3 | 0.00 | 0.15 | 0.10 | 60 | 1013.7 |
| 20260831193518 | 31 | 248 | 6.4 | 12.9 | 0.00 | 0.15 | 0.10 | 58 | 1013.7 |
| 20260831192517 | 31 | 225 | 6.4 | 14.5 | 0.00 | 0.15 | 0.10 | 57 | 1013.7 |
| 20260831191517 | 31 | 225 | 6.4 | 14.5 | 0.00 | 0.15 | 0.10 | 58 | 1014.0 |
| 20260831190517 | 31 | 248 | 9.7 | 20.9 | 0.00 | 0.15 | 0.10 | 54 | 1013.8 |
| 20260831185517 | 31 | 225 | 4.8 | 9.7 | 0.00 | 0.15 | 0.10 | 58 | 1014.0 |
| 20260831184517 | 31 | 203 | 6.4 | 17.7 | 0.00 | 0.15 | 0.10 | 60 | 1014.0 |
| 20260831183517 | 30 | 225 | 8.0 | 17.7 | 0.00 | 0.15 | 0.10 | 61 | 1014.0 |
| 20260831182537 | 30 | 225 | 8.0 | 16.1 | 0.00 | 0.15 | 0.10 | 61 | 1013.9 |
| 20260831181517 | 30 | 225 | 8.0 | 19.3 | 0.00 | 0.15 | 0.10 | 61 | 1014.0 |
| 20260831180517 | 29 | 225 | 8.0 | 16.1 | 0.00 | 0.15 | 0.10 | 62 | 1014.2 |
| 20260831175517 | 28 | 225 | 8.0 | 20.9 | 0.00 | 0.15 | 0.10 | 64 | 1014.2 |
| 20260831174517 | 28 | 180 | 8.0 | 19.3 | 0.00 | 0.15 | 0.10 | 63 | 1014.4 |
| 20260831173517 | 28 | 180 | 4.8 | 11.3 | 0.00 | 0.15 | 0.10 | 67 | 1014.5 |
| 20260831172517 | 28 | 180 | 8.0 | 16.1 | 0.00 | 0.15 | 0.10 | 65 | 1014.5 |
| 20260831171517 | 27 | 180 | 4.8 | 11.3 | 0.00 | 0.15 | 0.10 | 69 | 1014.6 |
| 20260831170517 | 27 | 180 | 6.4 | 17.7 | 0.00 | 0.15 | 0.10 | 69 | 1014.7 |
| 20260831165517 | 26 | 135 | 6.4 | 14.5 | 0.00 | 0.15 | 0.10 | 69 | 1014.9 |
| 20260831164542 | 26 | 158 | 4.8 | 11.3 | 0.00 | 0.15 | 0.10 | 71 | 1015.1 |
| 20260831163517 | 26 | 113 | 6.4 | 12.9 | 0.00 | 0.15 | 0.10 | 72 | 1015.1 |
| 20260831162517 | 25 | 180 | 3.2 | 9.7 | 0.00 | 0.15 | 0.10 | 76 | 1015.1 |
| 20260831161557 | 25 | 113 | 4.8 | 11.3 | 0.00 | 0.15 | 0.10 | 77 | 1015.1 |
| 20260831160537 | 24 | 113 | 3.2 | 11.3 | 0.00 | 0.15 | 0.10 | 79 | 1015.1 |
| 20260831155517 | 23 | 135 | 3.2 | 11.3 | 0.00 | 0.15 | 0.10 | 82 | 1015.1 |
| 20260831154517 | 23 | 113 | 3.2 | 14.5 | 0.00 | 0.15 | 0.10 | 83 | 1015.2 |
| 20260831153517 | 23 | 135 | 4.8 | 11.3 | 0.00 | 0.15 | 0.10 | 84 | 1015.2 |
| 20260831152537 | 23 | 225 | 4.8 | 9.7 | 0.00 | 0.15 | 0.10 | 81 | 1015.5 |
| 20260831151517 | 23 | 90 | 3.2 | 6.4 | 0.00 | 0.15 | 0.10 | 81 | 1015.5 |
| 20260831150517 | 23 | 293 | 1.6 | 4.8 | 0.00 | 0.15 | 0.10 | 81 | 1015.6 |
| 20260831145517 | 23 | 113 | 1.6 | 6.4 | 0.00 | 0.15 | 0.10 | 81 | 1015.4 |
| 20260831144557 | 22 | 135 | 3.2 | 8.0 | 0.00 | 0.15 | 0.10 | 82 | 1015.3 |
| 20260831143517 | 22 | 135 | 3.2 | 6.4 | 0.00 | 0.15 | 0.10 | 84 | 1015.2 |
| 20260831142517 | 22 | 113 | 3.2 | 11.3 | 0.00 | 0.15 | 0.10 | 85 | 1015.2 |
| 20260831141520 | 21 | 90 | 3.2 | 9.7 | 0.00 | 0.15 | 0.10 | 87 | 1015.1 |
| 20260831140517 | 21 | 68 | 1.6 | 6.4 | 0.00 | 0.15 | 0.10 | 89 | 1015.1 |
| 20260831135518 | 21 | 68 | 1.6 | 4.8 | 0.00 | 0.15 | 0.10 | 89 | 1015.2 |
| 20260831134517 | 21 | 0.0 | 1.6 | 0.05 | 0.15 | 0.10 | 90 | 1015.2 | |
| 20260831133517 | 21 | 0.0 | 1.6 | 0.05 | 0.15 | 0.10 | 89 | 1015.3 | |
| 20260831132517 | 21 | 68 | 1.6 | 4.8 | 0.05 | 0.18 | 0.10 | 88 | 1015.1 |
| 20260831131517 | 21 | 113 | 3.2 | 8.0 | 0.05 | 0.20 | 0.10 | 87 | 1015.0 |
| 20260831130517 | 21 | 135 | 1.6 | 4.8 | 0.05 | 0.23 | 0.10 | 87 | 1015.1 |
| 20260831125517 | 21 | 0.0 | 4.8 | 0.05 | 0.23 | 0.10 | 87 | 1015.4 | |
| 20260831124523 | 21 | 0.0 | 1.6 | 0.00 | 0.20 | 0.05 | 87 | 1015.4 | |
| 20260831123517 | 21 | 0.0 | 0.0 | 0.00 | 0.20 | 0.05 | 85 | 1015.1 | |
| 20260831122517 | 21 | 0.0 | 0.0 | 0.00 | 0.25 | 0.05 | 86 | 1015.0 | |
| 20260831121517 | 21 | 0.0 | 3.2 | 0.00 | 0.28 | 0.05 | 84 | 1014.9 | |
| 20260831120517 | 21 | 0.0 | 1.6 | 0.00 | 0.28 | 0.05 | 84 | 1014.3 | |
| 20260831115537 | 21 | 0.0 | 6.4 | 0.00 | 0.30 | 0.05 | 83 | 1014.3 | |
| 20260831114517 | 21 | 180 | 1.6 | 6.4 | 0.05 | 0.30 | 0.05 | 83 | 1014.3 |
| 20260831113517 | 21 | 225 | 1.6 | 3.2 | 0.05 | 0.33 | 0.05 | 84 | 1014.2 |
| 20260831112517 | 21 | 225 | 1.6 | 4.8 | 0.05 | 0.33 | 0.05 | 84 | 1014.1 |
| 20260831111517 | 21 | 225 | 1.6 | 3.2 | 0.05 | 0.33 | 0.05 | 84 | 1014.2 |
| 20260831110517 | 21 | 0.0 | 4.8 | 0.05 | 0.33 | 0.05 | 83 | 1014.1 | |
| 20260831105517 | 22 | 180 | 1.6 | 8.0 | 0.05 | 0.33 | 0.05 | 82 | 1014.2 |
| 20260831104517 | 22 | 180 | 1.6 | 4.8 | 0.00 | 0.28 | 0.00 | 80 | 1014.4 |
| 20260831103517 | 22 | 0.0 | 3.2 | 0.00 | 0.28 | 0.00 | 80 | 1014.4 | |
| 20260831102518 | 22 | 180 | 1.6 | 6.4 | 0.00 | 0.28 | 0.00 | 79 | 1014.5 |
| 20260831101517 | 22 | 180 | 3.2 | 6.4 | 0.00 | 0.28 | 0.00 | 80 | 1014.4 |
| 20260831100517 | 22 | 203 | 3.2 | 6.4 | 0.00 | 0.28 | 0.00 | 80 | 1014.2 |
| 20260831095537 | 22 | 225 | 3.2 | 9.7 | 0.00 | 0.28 | 0.00 | 80 | 1014.2 |
| 20260831094517 | 22 | 158 | 1.6 | 8.0 | 0.00 | 0.28 | 0.00 | 80 | 1014.2 |
| 20260831093517 | 22 | 180 | 3.2 | 8.0 | 0.00 | 0.28 | 0.00 | 79 | 1014.2 |
| 20260831092517 | 22 | 225 | 3.2 | 6.4 | 0.00 | 0.28 | 0.00 | 80 | 1014.3 |
| 20260831091517 | 22 | 203 | 3.2 | 8.0 | 0.00 | 0.28 | 0.00 | 79 | 1014.4 |
| 20260831090537 | 22 | 180 | 1.6 | 3.2 | 0.00 | 0.28 | 0.00 | 80 | 1014.4 |
| 20260831085517 | 22 | 180 | 1.6 | 4.8 | 0.00 | 0.28 | 0.00 | 80 | 1014.4 |
| 20260831084517 | 22 | 180 | 1.6 | 3.2 | 0.00 | 0.28 | 0.00 | 79 | 1014.4 |
| 20260831083517 | 22 | 180 | 1.6 | 8.0 | 0.00 | 0.28 | 0.00 | 79 | 1014.5 |